Torna al catalogo

FENGYUN 1C DEB

LostPO
NORAD 40692·DEBRIS·🇨🇳 China

Lanciato May 10, 1999 da Taiyuan Satellite Launch Center

Loading…

Prossimi Passaggi (prossime 24 ore)

TLE

ObsoletoSource: Space-Track

Epoca: Feb 27, 2025, 07:10 UTC

1 40692U 99025EWY 25058.29891271  .00006675  00000-0  32969-2 0  9990
2 40692  99.3114 243.2524 0084272  11.3825 348.9228 14.15899174522223

Traccia FENGYUN 1C DEB in tempo reale con AllMySat

Download on the App Store